www.pogodaiklimat.ru

Погода и климат >> Архив погоды >> Пакистан >> Бахавалпур аэропорт


ПОГОДА а Бахавалпур аэропорту

  • Прогноз погоды а Бахавалпур аэропорту
  • Монитор погоды а Бахавалпур аэропорту

АРХИВ ПОГОДЫ а Бахавалпур аэропорту

Время (UTC), дата Ветер
(напр.,м/с)
 
Видим.   Явления Облачность Т
(С)
Тd
(С)
f
(%)
Тe
(С)
Тes
(С)
Комфортность P
(гПа)
Po
(гПа)
Тmin
(С)
Tmax
(С)
R
(мм)
R24
(мм)
S
(см)
09 19.06 СВ 1 4000 м мгла ясно +36.0 +22.4 46 +45 +67 опасность
перегрева
1000.2 987.3
15 19.06 штиль 0 4000 м мгла 3/3 1200 м
[Sc]
+34.5 +20.5 44 +41 +41 опасность
перегрева
998.5 985.6
18 19.06 штиль 0 4000 м дым 3/0
[Ac trans]
+31.5 +23.6 63 +43 +43 опасность
перегрева
999.9 986.2
21 19.06 штиль 0 4000 м дым 5/1 1200 м
[Sc Ac trans]
+30.0 +23.5 68 +41 +41 опасность
перегрева
999.6 986.5
00 20.06 штиль 0 2000 м дым ясно +28.5 +23.5 74 +39 +39 очень
душно
1000.1 986.4
03 20.06 ЮЗ 1 2000 м дым 3/3 900 м
[Sc]
+32.5 +24.8 64 +46 +51 опасность
перегрева
1001.6 988.0 +28.0
06 20.06 З 5 4000 м мгла 3/0
[Ac trans]
+37.0 +19.1 35 +42 +51 опасность
перегрева
1001.8 988.4
09 20.06 З 5 4000 м мгла 1/1 1200 м
[Sc]
+40.0 +20.3 32 +45 +55 опасность
перегрева
999.8 987.1
12 20.06 ЮВ 5 4000 м мгла 6/3 1200 м
[Sc Ac trans]
+40.0 +18.3 28 +43 +45 опасность
перегрева
997.5 984.2 +41.2
18 20.06 СВ 7 4000 м в посл. час гроза {дождь} 9/5 1200 м
[Sc Ac trans]
+26.0 +23.8 88 +36 +36 очень
душно
1002.6 988.7 2
21 20.06 штиль 0 4000 м дым 4/0
[Ac trans]
+26.0 +23.1 84 +35 +35 очень
душно
1001.6 988.3
00 21.06 С 1 4000 м дым 6/3 1200 м
[Sc Ac trans]
+25.5 +22.6 84 +34 +34 очень
душно
1003.7 989.8
03 21.06 СВ 5 4000 м дым 8/4 1200 м
[Sc Ac trans]
+26.5 +22.1 77 +34 +36 очень
душно
1004.4 990.4 +24.5
06 21.06 С 3 2000 м мгла 4/0
[Ac trans]
+33.0 +20.4 48 +40 +54 опасность
солнечного
удара
1004.2 990.5
12 21.06 штиль 0 2000 м мгла ясно +37.5 +22.5 42 +46 +52 опасность
перегрева
999.6 986.1 +38.2
15 21.06 штиль 0 2000 м мгла 3/0
[Ac trans]
+35.0 +22.9 50 +45 +45 опасность
перегрева
1000.6 987.7
06 22.06 СВ 1 2000 м мгла 3/0
[Ac trans]
+38.5 +22.9 41 +48 +67 опасность
перегрева
1002.2 988.8
09 22.06 СЗ 3 2000 м мгла 1/1 1050 м
[Sc]
+41.0 +22.6 35 +49 +64 опасность
перегрева
1000.4 987.7
15 22.06 Ю 3 2000 м мгла 3/0
[Ac trans]
+35.0 +20.2 42 +41 +41 опасность
перегрева
999.3 986.4
18 22.06 С 3 2000 м дым 6/1 1050 м
[Sc Ac trans]
+32.5 +21.5 52 +40 +40 очень
душно
1000.8 987.1
21 22.06 штиль 0 2000 м дым 6/1 1050 м
[Sc Ac trans]
+31.0 +22.3 60 +40 +40 очень
душно
999.7 986.6
00 23.06 штиль 0 2000 м дым 4/0
[Ac trans]
+30.0 +22.8 65 +40 +40 очень
душно
999.7 985.9
03 23.06 штиль 0 4000 м дым 5/1 1050 м
[Sc Ac trans]
+32.5 +22.4 55 +42 +48 опасность
перегрева
1000.9 987.2 +29.5
06 23.06 ЮЗ 3 4000 м мгла ясно +41.0 +18.8 28 +45 +63 опасность
перегрева
1000.1 986.8
09 23.06 ЮЗ 3 4000 м мгла 1/1 1200 м
[Sc]
+43.0 +17.5 23 +46 +61 опасность
перегрева
985.1 972.7
12 23.06 СВ 1 4000 м мгла 1/1 1200 м
[Sc]
+43.0 +19.6 26 +47 +52 опасность
перегрева
996.1 983.0 +43.2
15 23.06 СВ 10 1000 м пыльный позёмок 6/3 1200 м
[Sc Ac trans]
+33.5 +21.0 48 +41 +41 опасность
перегрева
999.3 986.4
03 24.06 СЗ 3 4000 м гроза без осадков 10/6 900 м
[Cb calv Ac trans]
+24.5 +22.6 89 +32 +33 очень
душно
1006.3 992.3 +24.0 4
15 24.06 штиль 0 4000 м дым ясно +29.0 +24.8 78 +41 +41 опасность
перегрева
1002.4 989.2
18 24.06 штиль 0 4000 м дым 4/0
[Ac trans]
+28.0 +24.4 81 +39 +39 очень
душно
1004.8 991.5
21 24.06 штиль 0 4000 м дым 4/0
[Ac trans]
+26.0 +23.1 84 +35 +35 очень
душно
1003.7 990.4
00 25.06 штиль 0 2000 м дымка ясно +25.0 +22.0 83 +32 +32 очень
душно
1003.5 989.4
03 25.06 штиль 0 1000 м дым ясно +30.0 +24.3 72 +42 +51 опасность
перегрева
1004.4 990.5 +24.0
06 25.06 СВ 3 4000 м дым ясно +35.0 +23.7 52 +46 +64 опасность
перегрева
1004.5 990.8
09 25.06 СВ 3 4000 м дым ясно +36.0 +23.2 48 +46 +63 опасность
перегрева
1003.2 990.3
12 25.06 СВ 1 4000 м мгла ясно +37.0 +22.8 44 +46 +51 опасность
перегрева
1001.2 987.6 +37.5
21 25.06 штиль 0 4000 м дым ясно +30.0 +24.3 72 +42 +42 опасность
перегрева
1001.6 988.5
00 26.06 штиль 0 2000 м дым ясно +29.0 +24.0 74 +40 +40 очень
душно
1001.7 987.7
03 26.06 штиль 0 2000 м дым ясно +32.0 +24.2 63 +44 +53 опасность
перегрева
1002.1 988.3 +28.7
06 26.06 ЮЗ 1 4000 м мгла ясно +38.0 +22.3 41 +47 +70 опасность
перегрева
1001.6 988.0

 

Местоположение метеостанции Бахавалпур аэропорт (Пакистан): широта 29.40 долгота 71.78 высота над уровнем моря 117 м.

В архиве по умолчанию представлена погода а Бахавалпур аэропорту за последнюю неделю. Архивные данные за месяц целиком и за предыдущие месяцы, начиная с января 2011 года, Вы можете получить, выбрав интересующий диапазон дат из раскрывающегося списка и нажав кнопку "Ввод!".


*Определитесь, кто Вы:
робот инопланетянин человек

Внимание! Время в таблицах - всемирное. Для получения местного времени необходимо прибавить поправку, которая равна 5 ч.

Смотрите также архив погоды в соседних городах и на ближайших метеорологических станциях:

Погода в Мултане (Пакистан) (95 км)
Погода в Ханевале (Пакистан) (101 км)
Погода в Дера Гази Хан (Пакистан) (133 км)
Погода в Ханпуре (Пакистан) (136 км)
Погода в Кот Адду (Пакистан) (142 км)
Погода в Бахавалнагаре (Пакистан) (155 км)
Погода на Авиабазе Raifiqui (Пакистан) (159 км)
Погода в Рахим Яр Хан (Пакистан) (178 км)
Погода в Сахивале (Пакистан) (184 км)
Погода в Тоба Тек Сингх (Пакистан) (188 км)

Пояснения к столбцам:

Ветер - указаны скорость ветра в м/с - средняя за 10 мин, порывы в срок и между сроками (в фигурных скобках) и направление, откуда дует ветер: С - северный, СВ - северо-восточный, В - восточный, ЮВ - юго-восточный, Ю - южный, ЮЗ - юго-западный, З - западный, СЗ - северо-западный.
Видимость - горизонтальная дальность видимости в метрах или километрах. При видимости от 1 до 10 км при отсутствии осадков обычно наблюдается дымка, при ухудшении видимости до 1 км и менее - туман. В сухую погоду видимость может ухудшаться дымом, пылью или мглою.
Явления - указаны атмосферные явления, наблюдавшиеся в срок или в последний час перед сроком; фигурными скобками обозначены явления, наблюдавшиеся между сроками (за 1-3 часа до срока); квадратными скобками обозначены град или гололедные отложения с указанием их диаметра в мм.
Облачность - указаны через наклонную черту общая и нижняя облачность в баллах и высота нижней границы облаков в метрах; квадратными скобками обозначены формы облаков: Ci - перистые, Cs - перисто-слоистые, Cc - перисто-кучевые, Ac - высококучевые, As - высокослоистые, Sc - слоисто-кучевые, Ns - слоисто-дождевые, Cu - кучевые, Cb - кучево-дождевые. Подробнее классификацию облаков см. в Атласе облаков (PDF).
T - Температура воздуха - температура, измеренная на высоте 2 м над землей.
Td - Температура точки росы - температура, при понижении до которой содержащийся в воздухе водяной пар достигнет насыщения.
f - Относительная влажность воздуха - влажноcть воздуха, измеренная на высоте 2 м над землей.
Te - Эффективная температура - температура, которую ощущает одетый по сезону человек в тени. Характеристика душности погоды. При расчете учитывается влияние влажности воздуха и скорости ветра на теплоощущения человека.
Tes - Эффективная температура на солнце - температура, которую ощущает человек, с поправкой на солнечный нагрев. Характеристика знойности погоды. Зависит от высоты солнца над горизонтом, облачности и скорости ветра. Ночью, в пасмурную погоду, а также при ветре 12 м/с и более поправка равна нулю.
P - Атмосферное давление - приведенное к уровню моря атмосферное давление.
Po - Атмосферное давление - измеренное на уровне метеостанции атмосферное давление.
Tmin - Минимальная температура - минимум температуры воздуха на высоте 2 м над землей.
Tmax - Максимальная температура - максимум температуры воздуха на высоте 2 м над землей.
R - Количество осадков - Количество выпавших осадков за период времени, мм. При наведении курсора мыши на число - период времени, за который выпало указанное количество осадков.
R24 - Количество осадков - Количество выпавших осадков за 24 часа, мм.
S - Снежный покров - Высота снежного покрова, см. При наведении курсора мыши на число - состояние снежного покрова и степень покрытия местности в баллах.